Location: Passo di Treia
(43.2833°N, 13.3333°E)
Time: 02:58:13
(UTC+00:00)

USA 267 - Pass Details

Date: 09 December 2019
Orbit: 1100 x 1107 km, 123.0° (Epoch: 19 January)

Event Time Altitude Azimuth Distance (km) Brightness Sun altitude
Rises 16:46:40 0° 139° (SE) 3,903 5.9 -13.3°
Reaches altitude 10° 16:49:10 10° 142° (SE) 2,948 5.3 -13.7°
Maximum altitude 16:55:38 66° 225° (SW) 1,192 3.7 -14.8°
Drops below altitude 10° 17:02:08 10° 307° (NW) 2,962 6.0 -16.0°
Sets 17:04:40 0° 310° (NW) 3,923 6.6 -16.4°
